| time (UTC) | temp C | wind direction | speed KPH | gust KPH | rain 1hr cm | rain 24hr cm | rain mn cm | humidity % | barometer mb |
| 20260503054535 | 11 | 186 | 0.0 | 14.5 | 0.00 | 0.33 | 0.33 | 58 | 1017.0 |
| 20260503053028 | 10 | 139 | 8.0 | 17.7 | 0.00 | 0.33 | 0.33 | 66 | 1017.3 |
| 20260503051515 | 10 | 169 | 3.2 | 8.0 | 0.00 | 0.33 | 0.33 | 62 | 1017.4 |
| 20260503050020 | 10 | 177 | 0.0 | 6.4 | 0.00 | 0.33 | 0.33 | 66 | 1017.5 |
| 20260503044525 | 9 | 205 | 1.6 | 4.8 | 0.00 | 0.33 | 0.33 | 70 | 1017.5 |
| 20260503043038 | 8 | 171 | 0.0 | 6.4 | 0.00 | 0.33 | 0.33 | 72 | 1017.5 |
| 20260503041528 | 8 | 193 | 3.2 | 16.1 | 0.00 | 0.33 | 0.33 | 78 | 1017.3 |
| 20260503040003 | 8 | 170 | 9.7 | 19.3 | 0.00 | 0.33 | 0.33 | 79 | 1017.2 |
| 20260503034503 | 9 | 291 | 3.2 | 17.7 | 0.03 | 0.33 | 0.33 | 68 | 1016.5 |
| 20260503033014 | 9 | 281 | 4.8 | 9.7 | 0.03 | 0.33 | 0.33 | 70 | 1016.2 |
| 20260503031504 | 8 | 323 | 9.7 | 14.5 | 0.03 | 0.33 | 0.33 | 75 | 1016.0 |
| 20260503030004 | 8 | 210 | 4.8 | 9.7 | 0.03 | 0.33 | 0.33 | 80 | 1016.5 |
| 20260503024509 | 8 | 281 | 9.7 | 14.5 | 0.00 | 0.30 | 0.30 | 74 | 1017.0 |
| 20260503023005 | 8 | 298 | 8.0 | 9.7 | 0.03 | 0.30 | 0.30 | 80 | 1016.7 |
| 20260503021516 | 8 | 323 | 8.0 | 12.9 | 0.08 | 0.30 | 0.30 | 81 | 1016.4 |
| 20260503020004 | 8 | 334 | 11.3 | 25.7 | 0.08 | 0.30 | 0.30 | 84 | 1016.3 |
| 20260503014504 | 8 | 345 | 17.7 | 24.1 | 0.13 | 0.30 | 0.30 | 78 | 1016.2 |
| 20260503013006 | 8 | 295 | 6.4 | 12.9 | 0.28 | 0.28 | 0.28 | 80 | 1017.2 |
| 20260503011504 | 8 | 265 | 1.6 | 4.8 | 0.23 | 0.23 | 0.23 | 78 | 1017.4 |
| 20260503010004 | 8 | 337 | 6.4 | 14.5 | 0.23 | 0.23 | 0.23 | 76 | 1016.8 |
| 20260503004503 | 10 | 158 | 4.8 | 38.6 | 0.18 | 0.18 | 0.18 | 63 | 1017.0 |
| 20260503003012 | 12 | 167 | 4.8 | 12.9 | 0.00 | 0.00 | 0.00 | 48 | 1016.3 |
| 20260503001506 | 12 | 351 | 3.2 | 9.7 | 0.00 | 0.00 | 0.00 | 48 | 1015.5 |
| 20260503000009 | 13 | 321 | 8.0 | 12.9 | 0.00 | 0.00 | 0.00 | 47 | 1015.0 |
| 20260502234506 | 13 | 281 | 6.4 | 11.3 | 0.00 | 0.00 | 0.00 | 45 | 1015.3 |
| 20260502233006 | 14 | 281 | 0.0 | 4.8 | 0.00 | 0.00 | 0.00 | 42 | 1015.6 |
| 20260502231513 | 13 | 281 | 3.2 | 14.5 | 0.00 | 0.00 | 0.00 | 43 | 1015.7 |
| 20260502230008 | 13 | 305 | 8.0 | 17.7 | 0.00 | 0.00 | 0.00 | 44 | 1015.8 |
| 20260502224503 | 13 | 173 | 0.0 | 6.4 | 0.00 | 0.00 | 0.00 | 42 | 1016.5 |
| 20260502223005 | 14 | 155 | 3.2 | 20.9 | 0.00 | 0.00 | 0.00 | 42 | 1016.4 |
| 20260502221510 | 16 | 173 | 12.9 | 37.0 | 0.00 | 0.00 | 0.00 | 37 | 1016.1 |
| 20260502220011 | 16 | 233 | 4.8 | 11.3 | 0.00 | 0.00 | 0.00 | 33 | 1016.1 |
| 20260502214508 | 17 | 243 | 6.4 | 9.7 | 0.00 | 0.00 | 0.00 | 31 | 1016.3 |
| 20260502213011 | 16 | 228 | 8.0 | 12.9 | 0.00 | 0.00 | 0.00 | 31 | 1016.4 |
| 20260502211508 | 16 | 211 | 9.7 | 17.7 | 0.00 | 0.00 | 0.00 | 31 | 1016.6 |
| 20260502210010 | 16 | 164 | 19.3 | 30.6 | 0.00 | 0.00 | 0.00 | 30 | 1016.7 |
| 20260502204510 | 16 | 193 | 6.4 | 12.9 | 0.00 | 0.00 | 0.00 | 30 | 1016.8 |
| 20260502203010 | 16 | 201 | 6.4 | 12.9 | 0.00 | 0.00 | 0.00 | 30 | 1016.8 |
| 20260502201514 | 16 | 187 | 3.2 | 14.5 | 0.00 | 0.00 | 0.00 | 29 | 1016.8 |
| 20260502200014 | 17 | 162 | 8.0 | 12.9 | 0.00 | 0.00 | 0.00 | 28 | 1016.9 |
| 20260502194514 | 16 | 161 | 8.0 | 17.7 | 0.00 | 0.00 | 0.00 | 28 | 1016.9 |
| 20260502193021 | 17 | 189 | 6.4 | 14.5 | 0.00 | 0.00 | 0.00 | 28 | 1017.0 |
| 20260502191515 | 17 | 148 | 8.0 | 17.7 | 0.00 | 0.00 | 0.00 | 27 | 1017.0 |
| 20260502190011 | 17 | 184 | 9.7 | 17.7 | 0.00 | 0.00 | 0.00 | 27 | 1017.1 |
| 20260502184519 | 16 | 110 | 4.8 | 19.3 | 0.00 | 0.00 | 0.00 | 28 | 1017.2 |
| 20260502183004 | 16 | 183 | 6.4 | 19.3 | 0.00 | 0.00 | 0.00 | 29 | 1017.2 |
| 20260502181509 | 16 | 157 | 16.1 | 27.4 | 0.00 | 0.00 | 0.00 | 29 | 1017.4 |
| 20260502163015 | 16 | 143 | 14.5 | 24.1 | 0.00 | 0.00 | 0.00 | 35 | 1017.2 |
| 20260502161518 | 15 | 165 | 9.7 | 19.3 | 0.00 | 0.00 | 0.00 | 38 | 1017.3 |
| 20260502151514 | 13 | 177 | 6.4 | 12.9 | 0.00 | 0.00 | 0.00 | 42 | 1017.2 |
| 20260502123023 | 10 | 205 | 1.6 | 1.6 | 0.00 | 0.00 | 0.00 | 44 | 1016.3 |
| 20260502121524 | 10 | 204 | 0.0 | 3.2 | 0.00 | 0.00 | 0.00 | 43 | 1016.3 |
| 20260502114513 | 11 | 195 | 0.0 | 1.6 | 0.00 | 0.00 | 0.00 | 40 | 1016.2 |
| 20260502113018 | 11 | 193 | 0.0 | 0.0 | 0.00 | 0.00 | 0.00 | 44 | 1016.2 |
| 20260502111524 | 11 | 193 | 0.0 | 0.0 | 0.00 | 0.00 | 0.00 | 46 | 1016.2 |
| 20260502110027 | 11 | 193 | 0.0 | 0.0 | 0.00 | 0.00 | 0.00 | 47 | 1016.2 |
| 20260502104526 | 11 | 193 | 0.0 | 1.6 | 0.00 | 0.00 | 0.00 | 47 | 1016.1 |
| 20260502103036 | 11 | 193 | 0.0 | 1.6 | 0.00 | 0.00 | 0.00 | 47 | 1016.1 |
| 20260502101520 | 11 | 193 | 0.0 | 0.0 | 0.00 | 0.00 | 0.00 | 47 | 1016.1 |
| 20260502091504 | 11 | 193 | 0.0 | 3.2 | 0.00 | 0.00 | 0.00 | 39 | 1016.5 |
| 20260502071518 | 13 | 205 | 1.6 | 3.2 | 0.00 | 0.00 | 0.00 | 17 | 1017.6 |